Location: Aalen
(48.8330°N, 10.1000°E)
Time: 01:19:26
(UTC+02:00)

Transit 2A - Pass Details

Date: 05 August 2021
Orbit: 594 x 964 km, 66.7° (Epoch: 26 September)

Event Time Altitude Azimuth Distance (km) Brightness Sun altitude
Rises 10:08:54 0° 297° (WNW) 2,986 8.6 39.1°
Reaches altitude 10° 10:13:09 10° 335° (NNW) 2,165 8.1 39.7°
Maximum altitude 10:14:27 11° 350° (N) 2,133 8.2 39.9°
Drops below altitude 10° 10:15:46 10° 6° (N) 2,227 8.4 40.1°
Sets 10:20:24 0° 42° (NE) 3,268 9.4 40.8°
